Time,TemperatureF,DewpointF,PressureIn,WindDirection,WindDirectionDegrees,WindSpeedMPH,WindSpeedGustMPH,Humidity,HourlyPrecipIn,Conditions,Clouds,dailyrainin,SoftwareType,DateUTC
2013-03-15 00:00:00,35.0,26.2,30.25,WSW,248,0.0,2.0,70,0.00,,,0.00,VWS V14.01,2013-03-15 04:00:00,
2013-03-15 00:10:00,34.9,26.5,30.25,WSW,248,0.0,3.0,71,0.00,,,0.00,VWS V14.01,2013-03-15 04:10:00,
2013-03-15 00:20:00,34.7,26.3,30.25,WSW,248,0.0,2.0,71,0.00,,,0.00,VWS V14.01,2013-03-15 04:20:00,
2013-03-15 00:30:00,34.7,26.3,30.25,SW,225,2.0,4.0,71,0.00,,,0.00,VWS V14.01,2013-03-15 04:30:00,
2013-03-15 00:40:00,34.9,26.8,30.25,SW,225,2.0,5.0,72,0.00,,,0.00,VWS V14.01,2013-03-15 04:40:00,
2013-03-15 00:50:00,35.2,27.1,30.24,SW,225,2.0,5.0,72,0.00,,,0.00,VWS V14.01,2013-03-15 04:50:00,
2013-03-15 01:00:00,35.3,26.9,30.24,SW,225,1.0,5.0,71,0.00,,,0.00,VWS V14.01,2013-03-15 05:00:00,
2013-03-15 01:10:00,35.2,26.8,30.24,SW,225,2.0,4.0,71,0.00,,,0.00,VWS V14.01,2013-03-15 05:10:00,
2013-03-15 01:20:00,35.0,26.9,30.23,SSW,202,1.0,4.0,72,0.00,,,0.00,VWS V14.01,2013-03-15 05:20:00,
2013-03-15 01:30:00,34.6,26.5,30.22,South,180,1.0,3.0,72,0.00,,,0.00,VWS V14.01,2013-03-15 05:30:00,
2013-03-15 01:40:00,34.4,26.7,30.22,South,180,0.0,1.0,73,0.00,,,0.00,VWS V14.01,2013-03-15 05:40:00,
2013-03-15 01:50:00,34.1,26.7,30.22,South,180,0.0,1.0,74,0.00,,,0.00,VWS V14.01,2013-03-15 05:50:00,
2013-03-15 02:00:00,34.0,26.6,30.22,South,180,0.0,1.0,74,0.00,,,0.00,VWS V14.01,2013-03-15 06:00:00,
2013-03-15 02:10:00,33.8,26.4,30.22,South,180,0.0,1.0,74,0.00,,,0.00,VWS V14.01,2013-03-15 06:10:00,
2013-03-15 02:20:00,33.7,26.3,30.21,South,180,0.0,1.0,74,0.00,,,0.00,VWS V14.01,2013-03-15 06:20:00,
2013-03-15 02:30:00,33.5,26.1,30.20,South,180,0.0,1.0,74,0.00,,,0.00,VWS V14.01,2013-03-15 06:30:00,
2013-03-15 02:40:00,33.2,26.1,30.20,South,180,0.0,1.0,75,0.00,,,0.00,VWS V14.01,2013-03-15 06:40:00,
2013-03-15 02:50:00,32.9,25.9,30.19,South,180,0.0,3.0,75,0.00,,,0.00,VWS V14.01,2013-03-15 06:50:00,
2013-03-15 03:00:00,32.9,26.2,30.18,South,180,0.0,2.0,76,0.00,,,0.00,VWS V14.01,2013-03-15 07:00:00,
2013-03-15 03:10:00,33.1,26.0,30.18,South,180,0.0,3.0,75,0.00,,,0.00,VWS V14.01,2013-03-15 07:10:00,
2013-03-15 03:20:00,32.9,25.9,30.17,South,180,0.0,2.0,75,0.00,,,0.00,VWS V14.01,2013-03-15 07:20:00,
2013-03-15 03:30:00,32.9,26.2,30.16,South,180,0.0,3.0,76,0.00,,,0.00,VWS V14.01,2013-03-15 07:30:00,
2013-03-15 03:40:00,32.9,26.2,30.16,SSE,158,1.0,3.0,76,0.00,,,0.00,VWS V14.01,2013-03-15 07:40:00,
2013-03-15 03:50:00,32.9,26.2,30.15,SSE,158,1.0,2.0,76,0.00,,,0.00,VWS V14.01,2013-03-15 07:50:00,
2013-03-15 04:00:00,32.8,26.1,30.15,SSE,158,0.0,3.0,76,0.00,,,0.00,VWS V14.01,2013-03-15 08:00:00,
2013-03-15 04:10:00,32.7,26.0,30.15,SSE,158,0.0,3.0,76,0.00,,,0.00,VWS V14.01,2013-03-15 08:10:00,
2013-03-15 04:20:00,32.5,25.8,30.15,SSE,158,0.0,3.0,76,0.00,,,0.00,VWS V14.01,2013-03-15 08:20:00,
2013-03-15 04:30:00,32.5,26.1,30.15,SSE,158,0.0,3.0,77,0.00,,,0.00,VWS V14.01,2013-03-15 08:30:00,
2013-03-15 04:40:00,32.4,26.0,30.15,SSE,158,0.0,3.0,77,0.00,,,0.00,VWS V14.01,2013-03-15 08:40:00,
2013-03-15 04:50:00,32.4,26.0,30.14,SSE,158,1.0,3.0,77,0.00,,,0.00,VWS V14.01,2013-03-15 08:50:00,
2013-03-15 05:00:00,32.2,25.8,30.13,SSE,158,1.0,3.0,77,0.00,,,0.00,VWS V14.01,2013-03-15 09:00:00,
2013-03-15 05:10:00,32.2,26.1,30.13,SE,135,1.0,5.0,78,0.00,,,0.00,VWS V14.01,2013-03-15 09:10:00,
2013-03-15 05:20:00,32.2,26.1,30.13,SSE,158,1.0,4.0,78,0.00,,,0.00,VWS V14.01,2013-03-15 09:20:00,
2013-03-15 05:30:00,32.5,26.4,30.12,SSE,158,1.0,4.0,78,0.00,,,0.00,VWS V14.01,2013-03-15 09:30:00,
2013-03-15 05:40:00,32.9,26.5,30.12,SSE,158,2.0,6.0,77,0.00,,,0.00,VWS V14.01,2013-03-15 09:40:00,
2013-03-15 05:50:00,33.2,26.8,30.11,SSE,158,2.0,5.0,77,0.00,,,0.00,VWS V14.01,2013-03-15 09:50:00,
2013-03-15 06:00:00,33.5,26.8,30.11,SSE,158,2.0,6.0,76,0.00,,,0.00,VWS V14.01,2013-03-15 10:00:00,
2013-03-15 06:10:00,33.4,26.7,30.11,SSE,158,1.0,3.0,76,0.00,,,0.00,VWS V14.01,2013-03-15 10:10:00,
2013-03-15 06:20:00,33.1,26.4,30.10,SSE,158,1.0,4.0,76,0.00,,,0.00,VWS V14.01,2013-03-15 10:20:00,
2013-03-15 06:30:00,32.9,26.5,30.10,SSE,158,1.0,4.0,77,0.00,,,0.00,VWS V14.01,2013-03-15 10:30:00,
2013-03-15 06:40:00,32.7,26.3,30.10,SSE,158,0.0,2.0,77,0.00,,,0.00,VWS V14.01,2013-03-15 10:40:00,
2013-03-15 06:50:00,32.4,26.3,30.10,SSE,158,0.0,2.0,78,0.00,,,0.00,VWS V14.01,2013-03-15 10:50:00,
2013-03-15 07:00:00,32.2,26.1,30.11,SSE,158,0.0,1.0,78,0.00,,,0.00,VWS V14.01,2013-03-15 11:00:00,
2013-03-15 07:10:00,32.4,26.3,30.11,SSE,158,0.0,2.0,78,0.00,,,0.00,VWS V14.01,2013-03-15 11:10:00,
2013-03-15 07:20:00,32.9,26.8,30.10,SSE,158,1.0,3.0,78,0.00,,,0.00,VWS V14.01,2013-03-15 11:20:00,
2013-03-15 07:30:00,33.4,27.0,30.11,SE,135,0.0,3.0,77,0.00,,,0.00,VWS V14.01,2013-03-15 11:30:00,
2013-03-15 07:40:00,33.8,27.0,30.11,SE,135,0.0,2.0,76,0.00,,,0.00,VWS V14.01,2013-03-15 11:40:00,
2013-03-15 07:50:00,34.4,27.3,30.10,SE,135,1.0,4.0,75,0.00,,,0.00,VWS V14.01,2013-03-15 11:50:00,
2013-03-15 08:00:00,35.2,27.8,30.10,SE,135,1.0,3.0,74,0.00,,,0.00,VWS V14.01,2013-03-15 12:00:00,
2013-03-15 08:10:00,36.0,28.2,30.10,SSE,158,1.0,4.0,73,0.00,,,0.00,VWS V14.01,2013-03-15 12:10:00,
2013-03-15 08:20:00,37.0,28.5,30.10,SSE,158,1.0,4.0,71,0.00,,,0.00,VWS V14.01,2013-03-15 12:20:00,
2013-03-15 08:30:00,38.0,28.8,30.10,SSE,158,1.0,4.0,69,0.00,,,0.00,VWS V14.01,2013-03-15 12:30:00,
2013-03-15 08:40:00,38.8,28.8,30.10,South,180,2.0,5.0,67,0.00,,,0.00,VWS V14.01,2013-03-15 12:40:00,
2013-03-15 08:50:00,39.8,29.4,30.09,SSW,202,1.0,5.0,66,0.00,,,0.00,VWS V14.01,2013-03-15 12:50:00,
2013-03-15 09:00:00,40.6,29.4,30.09,South,180,1.0,4.0,64,0.00,,,0.00,VWS V14.01,2013-03-15 13:00:00,
2013-03-15 09:10:00,41.5,29.5,30.09,SSW,202,2.0,6.0,62,0.00,,,0.00,VWS V14.01,2013-03-15 13:10:00,
2013-03-15 09:20:00,42.2,29.7,30.08,SSW,202,3.0,7.0,61,0.00,,,0.00,VWS V14.01,2013-03-15 13:20:00,
2013-03-15 09:30:00,42.9,29.6,30.08,SSW,202,3.0,10.0,59,0.00,,,0.00,VWS V14.01,2013-03-15 13:30:00,
2013-03-15 09:40:00,43.3,30.0,30.08,SSW,202,5.0,9.0,59,0.00,,,0.00,VWS V14.01,2013-03-15 13:40:00,
2013-03-15 09:50:00,44.1,30.7,30.06,SSW,202,5.0,9.0,59,0.00,,,0.00,VWS V14.01,2013-03-15 13:50:00,
2013-03-15 10:00:00,45.1,30.8,30.05,SSW,202,4.0,8.0,57,0.00,,,0.00,VWS V14.01,2013-03-15 14:00:00,
2013-03-15 10:10:00,46.2,31.8,30.05,SSW,202,4.0,7.0,57,0.00,,,0.00,VWS V14.01,2013-03-15 14:10:00,
2013-03-15 10:20:00,46.8,31.5,30.05,SSW,202,4.0,8.0,55,0.00,,,0.00,VWS V14.01,2013-03-15 14:20:00,
2013-03-15 10:30:00,47.3,32.4,30.04,South,180,4.0,11.0,56,0.00,,,0.00,VWS V14.01,2013-03-15 14:30:00,
2013-03-15 10:40:00,48.2,32.8,30.04,SW,225,4.0,8.0,55,0.00,,,0.00,VWS V14.01,2013-03-15 14:40:00,
2013-03-15 10:50:00,48.8,32.4,30.04,SSW,202,4.0,8.0,53,0.00,,,0.00,VWS V14.01,2013-03-15 14:50:00,
2013-03-15 11:00:00,49.8,32.4,30.03,SW,225,4.0,8.0,51,0.00,,,0.00,VWS V14.01,2013-03-15 15:00:00,
2013-03-15 11:10:00,50.4,33.0,30.03,SW,225,5.0,10.0,51,0.00,,,0.00,VWS V14.01,2013-03-15 15:10:00,
2013-03-15 11:20:00,50.7,32.8,30.03,SW,225,4.0,9.0,50,0.00,,,0.00,VWS V14.01,2013-03-15 15:20:00,
2013-03-15 11:30:00,50.8,32.8,30.03,SW,225,4.0,7.0,50,0.00,,,0.00,VWS V14.01,2013-03-15 15:30:00,
2013-03-15 11:40:00,50.8,32.8,30.03,SW,225,6.0,11.0,50,0.00,,,0.00,VWS V14.01,2013-03-15 15:40:00,
2013-03-15 11:50:00,51.0,33.5,30.03,SW,225,5.0,9.0,51,0.00,,,0.00,VWS V14.01,2013-03-15 15:50:00,
2013-03-15 12:00:00,51.4,33.9,30.03,SW,225,4.0,10.0,51,0.00,,,0.00,VWS V14.01,2013-03-15 16:00:00,
2013-03-15 12:10:00,51.9,33.4,30.03,SW,225,5.0,10.0,49,0.00,,,0.00,VWS V14.01,2013-03-15 16:10:00,
2013-03-15 12:20:00,51.7,33.7,30.03,SW,225,6.0,11.0,50,0.00,,,0.00,VWS V14.01,2013-03-15 16:20:00,
2013-03-15 12:30:00,52.2,33.6,30.02,SW,225,5.0,9.0,49,0.00,,,0.00,VWS V14.01,2013-03-15 16:30:00,
2013-03-15 12:40:00,52.5,33.9,30.02,SW,225,5.0,11.0,49,0.00,,,0.00,VWS V14.01,2013-03-15 16:40:00,
2013-03-15 12:50:00,52.8,34.2,30.01,SSW,202,6.0,13.0,49,0.00,,,0.00,VWS V14.01,2013-03-15 16:50:00,
2013-03-15 13:00:00,53.2,34.0,30.01,SW,225,5.0,12.0,48,0.00,,,0.00,VWS V14.01,2013-03-15 17:00:00,
2013-03-15 13:10:00,53.3,34.1,30.01,SW,225,6.0,9.0,48,0.00,,,0.00,VWS V14.01,2013-03-15 17:10:00,
2013-03-15 13:20:00,53.8,35.1,30.01,SW,225,5.0,13.0,49,0.00,,,0.00,VWS V14.01,2013-03-15 17:20:00,
2013-03-15 13:30:00,54.5,34.7,29.99,SW,225,5.0,9.0,47,0.00,,,0.00,VWS V14.01,2013-03-15 17:30:00,
2013-03-15 13:40:00,55.1,35.2,29.99,SSW,202,5.0,9.0,47,0.00,,,0.00,VWS V14.01,2013-03-15 17:40:00,
2013-03-15 13:50:00,55.9,35.4,29.99,SW,225,3.0,8.0,46,0.00,,,0.00,VWS V14.01,2013-03-15 17:50:00,
2013-03-15 14:00:00,55.9,36.5,29.99,SW,225,4.0,8.0,48,0.00,,,0.00,VWS V14.01,2013-03-15 18:00:00,
2013-03-15 14:10:00,56.2,36.3,29.99,SW,225,5.0,9.0,47,0.00,,,0.00,VWS V14.01,2013-03-15 18:10:00,
2013-03-15 14:20:00,56.3,36.3,29.98,SW,225,6.0,9.0,47,0.00,,,0.00,VWS V14.01,2013-03-15 18:20:00,
2013-03-15 14:30:00,56.9,36.9,29.98,WSW,248,4.0,9.0,47,0.00,,,0.00,VWS V14.01,2013-03-15 18:30:00,
2013-03-15 14:40:00,57.2,36.6,29.98,SW,225,4.0,8.0,46,0.00,,,0.00,VWS V14.01,2013-03-15 18:40:00,
2013-03-15 14:50:00,57.6,37.0,29.96,SW,225,4.0,8.0,46,0.00,,,0.00,VWS V14.01,2013-03-15 18:50:00,
2013-03-15 15:00:00,58.0,37.9,29.96,SW,225,5.0,8.0,47,0.00,,,0.00,VWS V14.01,2013-03-15 19:00:00,
2013-03-15 15:10:00,58.1,37.5,29.96,SW,225,5.0,9.0,46,0.00,,,0.00,VWS V14.01,2013-03-15 19:10:00,
2013-03-15 15:20:00,58.3,37.6,29.94,SW,225,4.0,7.0,46,0.00,,,0.00,VWS V14.01,2013-03-15 19:20:00,
2013-03-15 15:30:00,58.6,37.9,29.94,SW,225,4.0,10.0,46,0.00,,,0.00,VWS V14.01,2013-03-15 19:30:00,
2013-03-15 15:40:00,58.7,36.9,29.94,SW,225,4.0,10.0,44,0.00,,,0.00,VWS V14.01,2013-03-15 19:40:00,
2013-03-15 15:50:00,58.7,37.4,29.94,SW,225,5.0,11.0,45,0.00,,,0.00,VWS V14.01,2013-03-15 19:50:00,
2013-03-15 16:00:00,58.6,37.3,29.94,SW,225,5.0,10.0,45,0.00,,,0.00,VWS V14.01,2013-03-15 20:00:00,
2013-03-15 16:10:00,58.6,36.8,29.94,SW,225,4.0,9.0,44,0.00,,,0.00,VWS V14.01,2013-03-15 20:10:00,
2013-03-15 16:20:00,58.6,36.8,29.93,WSW,248,4.0,8.0,44,0.00,,,0.00,VWS V14.01,2013-03-15 20:20:00,
2013-03-15 16:30:00,58.6,37.3,29.93,WSW,248,3.0,8.0,45,0.00,,,0.00,VWS V14.01,2013-03-15 20:30:00,
2013-03-15 16:40:00,59.0,37.7,29.93,SW,225,3.0,8.0,45,0.00,,,0.00,VWS V14.01,2013-03-15 20:40:00,
2013-03-15 16:50:00,59.0,38.3,29.92,SW,225,3.0,7.0,46,0.00,,,0.00,VWS V14.01,2013-03-15 20:50:00,
2013-03-15 17:00:00,59.2,37.9,29.92,WSW,248,1.0,5.0,45,0.00,,,0.00,VWS V14.01,2013-03-15 21:00:00,
2013-03-15 17:10:00,59.5,38.2,29.92,WSW,248,1.0,4.0,45,0.00,,,0.00,VWS V14.01,2013-03-15 21:10:00,
2013-03-15 17:20:00,59.5,38.2,29.92,SW,225,1.0,4.0,45,0.00,,,0.00,VWS V14.01,2013-03-15 21:20:00,
2013-03-15 17:30:00,59.5,38.2,29.92,WSW,248,1.0,3.0,45,0.00,,,0.00,VWS V14.01,2013-03-15 21:30:00,
2013-03-15 17:40:00,59.5,38.2,29.92,WSW,248,1.0,4.0,45,0.00,,,0.00,VWS V14.01,2013-03-15 21:40:00,
2013-03-15 17:50:00,59.3,38.0,29.92,WSW,248,0.0,3.0,45,0.00,,,0.00,VWS V14.01,2013-03-15 21:50:00,
2013-03-15 18:07:00,59.3,38.0,29.92,WSW,257,0.0,3.0,45,0.00,,,0.00,VWS V14.01,2013-03-15 22:07:00,
2013-03-15 18:10:00,59.2,37.9,29.92,WSW,257,0.0,3.0,45,0.00,,,0.00,VWS V14.01,2013-03-15 22:10:00,
2013-03-15 18:12:00,59.2,37.9,29.92,WSW,257,0.0,3.0,45,0.00,,,0.00,VWS V14.01,2013-03-15 22:12:00,
2013-03-15 18:17:00,59.2,37.9,29.92,WSW,257,0.0,3.0,45,0.00,,,0.00,VWS V14.01,2013-03-15 22:17:00,
2013-03-15 18:20:00,59.0,37.7,29.92,WSW,257,0.0,3.0,45,0.00,,,0.00,VWS V14.01,2013-03-15 22:20:00,
2013-03-15 18:22:00,59.0,38.3,29.92,WSW,257,0.0,3.0,46,0.00,,,0.00,VWS V14.01,2013-03-15 22:22:00,
2013-03-15 18:27:00,58.9,38.2,29.92,WSW,257,0.0,3.0,46,0.00,,,0.00,VWS V14.01,2013-03-15 22:27:00,
2013-03-15 18:30:00,58.9,38.2,29.92,WSW,257,0.0,3.0,46,0.00,,,0.00,VWS V14.01,2013-03-15 22:30:00,
2013-03-15 18:32:00,58.7,38.0,29.92,WSW,257,0.0,3.0,46,0.00,,,0.00,VWS V14.01,2013-03-15 22:32:00,
2013-03-15 18:37:00,58.4,38.3,29.92,WSW,257,0.0,3.0,47,0.00,,,0.00,VWS V14.01,2013-03-15 22:37:00,
2013-03-15 18:40:00,58.4,38.3,29.92,WSW,257,0.0,3.0,47,0.00,,,0.00,VWS V14.01,2013-03-15 22:40:00,
2013-03-15 18:43:00,58.3,38.2,29.92,WSW,257,0.0,3.0,47,0.00,,,0.00,VWS V14.01,2013-03-15 22:43:00,
2013-03-15 18:48:00,58.0,37.9,29.92,West,264,0.0,3.0,47,0.00,,,0.00,VWS V14.01,2013-03-15 22:48:00,
2013-03-15 18:50:00,58.0,38.4,29.92,West,264,0.0,3.0,48,0.00,,,0.00,VWS V14.01,2013-03-15 22:50:00,
2013-03-15 18:53:00,57.8,38.3,29.92,West,263,0.0,3.0,48,0.00,,,0.00,VWS V14.01,2013-03-15 22:53:00,
2013-03-15 18:58:00,57.6,38.6,29.92,West,263,0.0,3.0,49,0.00,,,0.00,VWS V14.01,2013-03-15 22:58:00,
2013-03-15 19:00:00,57.5,39.0,29.92,West,263,0.0,3.0,50,0.00,,,0.00,VWS V14.01,2013-03-15 23:00:00,
2013-03-15 19:03:00,57.2,38.8,29.92,West,263,0.0,3.0,50,0.00,,,0.00,VWS V14.01,2013-03-15 23:03:00,
2013-03-15 19:08:00,56.7,38.8,29.92,West,263,0.0,3.0,51,0.00,,,0.00,VWS V14.01,2013-03-15 23:08:00,
2013-03-15 19:10:00,56.6,38.7,29.92,West,263,0.0,3.0,51,0.00,,,0.00,VWS V14.01,2013-03-15 23:10:00,
2013-03-15 19:13:00,56.3,38.4,29.92,West,264,0.0,3.0,51,0.00,,,0.00,VWS V14.01,2013-03-15 23:13:00,
2013-03-15 19:18:00,56.2,38.8,29.91,West,264,0.0,3.0,52,0.00,,,0.00,VWS V14.01,2013-03-15 23:18:00,
2013-03-15 19:20:00,56.2,38.8,29.91,West,264,0.0,3.0,52,0.00,,,0.00,VWS V14.01,2013-03-15 23:20:00,
2013-03-15 19:23:00,56.0,38.6,29.91,West,264,0.0,3.0,52,0.00,,,0.00,VWS V14.01,2013-03-15 23:23:00,
2013-03-15 19:28:00,55.9,39.0,29.91,West,264,0.0,3.0,53,0.00,,,0.00,VWS V14.01,2013-03-15 23:28:00,
2013-03-15 19:30:00,55.9,38.5,29.91,West,264,0.0,3.0,52,0.00,,,0.00,VWS V14.01,2013-03-15 23:30:00,
2013-03-15 19:33:00,55.7,38.8,29.91,West,264,0.0,3.0,53,0.00,,,0.00,VWS V14.01,2013-03-15 23:33:00,
2013-03-15 19:38:00,55.6,38.8,29.91,West,264,0.0,3.0,53,0.00,,,0.00,VWS V14.01,2013-03-15 23:38:00,
2013-03-15 19:40:00,55.4,38.6,29.91,West,264,0.0,3.0,53,0.00,,,0.00,VWS V14.01,2013-03-15 23:40:00,
2013-03-15 19:43:00,55.3,38.5,29.91,West,264,0.0,3.0,53,0.00,,,0.00,VWS V14.01,2013-03-15 23:43:00,
2013-03-15 19:48:00,55.1,38.3,29.91,West,264,0.0,3.0,53,0.00,,,0.00,VWS V14.01,2013-03-15 23:48:00,
2013-03-15 19:50:00,55.1,38.3,29.91,West,264,0.0,3.0,53,0.00,,,0.00,VWS V14.01,2013-03-15 23:50:00,
2013-03-15 19:53:00,55.1,38.3,29.91,West,263,0.0,3.0,53,0.00,,,0.00,VWS V14.01,2013-03-15 23:53:00,
2013-03-15 19:58:00,55.0,39.2,29.91,West,264,0.0,3.0,55,0.00,,,0.00,VWS V14.01,2013-03-15 23:58:00,
2013-03-15 20:00:00,54.8,39.0,29.90,West,264,0.0,3.0,55,0.00,,,0.00,VWS V14.01,2013-03-16 00:00:00,
2013-03-15 20:03:00,54.5,38.7,29.90,West,264,0.0,3.0,55,0.00,,,0.00,VWS V14.01,2013-03-16 00:03:00,
2013-03-15 20:08:00,54.2,38.9,29.90,West,264,0.0,3.0,56,0.00,,,0.00,VWS V14.01,2013-03-16 00:08:00,
2013-03-15 20:10:00,54.1,39.2,29.90,West,264,0.0,3.0,57,0.00,,,0.00,VWS V14.01,2013-03-16 00:10:00,
2013-03-15 20:13:00,53.6,38.8,29.90,West,263,0.0,3.0,57,0.00,,,0.00,VWS V14.01,2013-03-16 00:13:00,
2013-03-15 20:18:00,53.5,38.2,29.89,West,263,0.0,3.0,56,0.00,,,0.00,VWS V14.01,2013-03-16 00:18:00,
2013-03-15 20:20:00,53.3,38.5,29.89,West,264,0.0,3.0,57,0.00,,,0.00,VWS V14.01,2013-03-16 00:20:00,
2013-03-15 20:23:00,53.3,38.0,29.89,West,264,0.0,3.0,56,0.00,,,0.00,VWS V14.01,2013-03-16 00:23:00,
2013-03-15 20:29:00,53.3,38.0,29.89,West,264,0.0,3.0,56,0.00,,,0.00,VWS V14.01,2013-03-16 00:29:00,
2013-03-15 20:30:00,53.3,38.0,29.89,West,264,0.0,3.0,56,0.00,,,0.00,VWS V14.01,2013-03-16 00:30:00,
2013-03-15 20:34:00,53.2,37.9,29.89,West,264,0.0,3.0,56,0.00,,,0.00,VWS V14.01,2013-03-16 00:34:00,
2013-03-15 20:39:00,53.2,38.4,29.89,West,263,0.0,3.0,57,0.00,,,0.00,VWS V14.01,2013-03-16 00:39:00,
2013-03-15 20:40:00,53.2,38.4,29.89,West,264,0.0,3.0,57,0.00,,,0.00,VWS V14.01,2013-03-16 00:40:00,
2013-03-15 20:44:00,53.2,38.4,29.89,West,263,0.0,3.0,57,0.00,,,0.00,VWS V14.01,2013-03-16 00:44:00,
2013-03-15 20:49:00,53.3,38.0,29.89,West,266,0.0,3.0,56,0.00,,,0.00,VWS V14.01,2013-03-16 00:49:00,
2013-03-15 20:54:00,53.5,38.2,29.89,West,266,0.0,3.0,56,0.00,,,0.00,VWS V14.01,2013-03-16 00:54:00,
2013-03-15 20:59:00,53.8,38.5,29.89,West,266,0.0,3.0,56,0.00,,,0.00,VWS V14.01,2013-03-16 00:59:00,
2013-03-15 21:00:00,53.8,38.5,29.89,West,266,0.0,3.0,56,0.00,,,0.00,VWS V14.01,2013-03-16 01:00:00,
2013-03-15 21:04:00,53.8,38.5,29.89,West,266,0.0,3.0,56,0.00,,,0.00,VWS V14.01,2013-03-16 01:04:00,
2013-03-15 21:09:00,53.8,38.5,29.89,West,265,0.0,3.0,56,0.00,,,0.00,VWS V14.01,2013-03-16 01:09:00,
2013-03-15 21:10:00,53.8,38.5,29.89,West,265,0.0,3.0,56,0.00,,,0.00,VWS V14.01,2013-03-16 01:10:00,
2013-03-15 21:14:00,53.8,38.5,29.89,West,265,0.0,3.0,56,0.00,,,0.00,VWS V14.01,2013-03-16 01:14:00,
2013-03-15 21:19:00,53.6,38.3,29.89,West,265,0.0,3.0,56,0.00,,,0.00,VWS V14.01,2013-03-16 01:19:00,
2013-03-15 21:20:00,53.6,38.3,29.89,West,266,0.0,3.0,56,0.00,,,0.00,VWS V14.01,2013-03-16 01:20:00,
2013-03-15 21:29:00,53.5,38.2,29.88,West,265,0.0,3.0,56,0.00,,,0.00,VWS V14.01,2013-03-16 01:29:00,
2013-03-15 21:30:00,53.5,38.2,29.88,West,265,0.0,3.0,56,0.00,,,0.00,VWS V14.01,2013-03-16 01:30:00,
2013-03-15 21:34:00,53.3,38.5,29.88,West,265,1.0,3.0,57,0.00,,,0.00,VWS V14.01,2013-03-16 01:34:00,
2013-03-15 21:39:00,53.2,38.4,29.88,West,265,0.0,3.0,57,0.00,,,0.00,VWS V14.01,2013-03-16 01:39:00,
2013-03-15 21:40:00,53.2,38.4,29.88,West,265,0.0,3.0,57,0.00,,,0.00,VWS V14.01,2013-03-16 01:40:00,
2013-03-15 21:44:00,53.1,38.7,29.87,South,174,0.0,3.0,58,0.00,,,0.00,VWS V14.01,2013-03-16 01:44:00,
2013-03-15 21:50:00,52.9,38.5,29.87,South,174,0.0,3.0,58,0.00,,,0.00,VWS V14.01,2013-03-16 01:50:00,
2013-03-15 21:54:00,52.9,38.5,29.87,South,174,0.0,3.0,58,0.00,,,0.00,VWS V14.01,2013-03-16 01:54:00,
2013-03-15 21:55:00,53.3,38.0,29.89,West,266,0.0,3.0,56,0.00,,,0.00,VWS V14.01,2013-03-16 01:55:00,
2013-03-15 21:59:00,52.8,38.5,29.87,SSE,160,0.0,3.0,58,0.00,,,0.00,VWS V14.01,2013-03-16 01:59:00,
2013-03-15 22:04:00,52.8,38.5,29.87,SSE,160,0.0,3.0,58,0.00,,,0.00,VWS V14.01,2013-03-16 02:04:00,
2013-03-15 22:10:00,52.8,38.5,29.87,SSE,160,0.0,3.0,58,0.00,,,0.00,VWS V14.01,2013-03-16 02:10:00,
2013-03-15 22:14:00,52.8,38.5,29.86,SSE,160,0.0,3.0,58,0.00,,,0.00,VWS V14.01,2013-03-16 02:14:00,
2013-03-15 22:19:00,52.9,38.5,29.86,ESE,111,0.0,3.0,58,0.00,,,0.00,VWS V14.01,2013-03-16 02:19:00,
2013-03-15 22:25:00,52.9,38.5,29.86,ESE,111,0.0,3.0,58,0.00,,,0.00,VWS V14.01,2013-03-16 02:25:00,
2013-03-15 22:30:00,53.6,38.3,29.89,West,266,0.0,3.0,56,0.00,,,0.00,VWS V14.01,2013-03-16 02:30:00,
2013-03-15 22:55:00,52.9,38.5,29.87,South,174,0.0,3.0,58,0.00,,,0.00,VWS V14.01,2013-03-16 02:55:00,
2013-03-15 23:00:00,52.8,38.9,29.83,SE,141,5.0,5.0,59,0.00,,,0.00,VWS V14.01,2013-03-16 03:00:00,
2013-03-15 23:01:00,52.8,38.9,29.83,SE,141,5.0,5.0,59,0.00,,,0.00,VWS V14.01,2013-03-16 03:01:00,
2013-03-15 23:05:00,52.8,38.5,29.87,SSE,160,0.0,3.0,58,0.00,,,0.00,VWS V14.01,2013-03-16 03:05:00,
2013-03-15 23:06:00,52.6,39.1,29.83,SE,140,3.0,3.0,60,0.00,,,0.00,VWS V14.01,2013-03-16 03:06:00,
2013-03-15 23:10:00,52.6,39.1,29.83,SE,145,1.0,3.0,60,0.00,,,0.00,VWS V14.01,2013-03-16 03:10:00,
2013-03-15 23:11:00,52.6,39.1,29.83,ESE,121,0.0,3.0,60,0.00,,,0.00,VWS V14.01,2013-03-16 03:11:00,
2013-03-15 23:15:00,52.8,38.5,29.87,SSE,160,0.0,3.0,58,0.00,,,0.00,VWS V14.01,2013-03-16 03:15:00,
2013-03-15 23:16:00,52.5,39.0,29.82,SSE,153,1.0,3.0,60,0.00,,,0.00,VWS V14.01,2013-03-16 03:16:00,
2013-03-15 23:20:00,52.5,39.0,29.82,SE,144,0.0,3.0,60,0.00,,,0.00,VWS V14.01,2013-03-16 03:20:00,
2013-03-15 23:21:00,52.5,39.0,29.82,SE,144,2.0,3.0,60,0.00,,,0.00,VWS V14.01,2013-03-16 03:21:00,
2013-03-15 23:25:00,52.9,38.5,29.86,ESE,111,0.0,3.0,58,0.00,,,0.00,VWS V14.01,2013-03-16 03:25:00,
2013-03-15 23:26:00,52.6,39.1,29.82,SE,144,0.0,3.0,60,0.00,,,0.00,VWS V14.01,2013-03-16 03:26:00,
2013-03-15 23:30:00,52.6,39.1,29.81,SE,144,0.0,3.0,60,0.00,,,0.00,VWS V14.01,2013-03-16 03:30:00,
2013-03-15 23:31:00,52.6,39.1,29.81,SE,144,0.0,3.0,60,0.00,,,0.00,VWS V14.01,2013-03-16 03:31:00,
2013-03-15 23:35:00,52.9,38.5,29.84,ESE,111,1.0,3.0,58,0.00,,,0.00,VWS V14.01,2013-03-16 03:35:00,
2013-03-15 23:36:00,52.9,39.4,29.81,SSE,156,3.0,3.0,60,0.00,,,0.00,VWS V14.01,2013-03-16 03:36:00,
2013-03-15 23:40:00,52.9,38.5,29.84,ESE,111,2.0,3.0,58,0.00,,,0.00,VWS V14.01,2013-03-16 03:40:00,
2013-03-15 23:41:00,53.2,39.3,29.81,SSE,155,3.0,3.0,59,0.00,,,0.00,VWS V14.01,2013-03-16 03:41:00,
2013-03-15 23:45:00,53.1,38.7,29.84,ESE,119,3.0,3.0,58,0.00,,,0.00,VWS V14.01,2013-03-16 03:45:00,
2013-03-15 23:46:00,53.3,39.3,29.81,SSE,155,0.0,3.0,59,0.00,,,0.00,VWS V14.01,2013-03-16 03:46:00,
2013-03-15 23:50:00,53.1,38.7,29.84,SE,145,4.0,4.0,58,0.00,,,0.00,VWS V14.01,2013-03-16 03:50:00,
2013-03-15 23:51:00,53.3,39.3,29.81,SSE,155,2.0,3.0,59,0.00,,,0.00,VWS V14.01,2013-03-16 03:51:00,
2013-03-15 23:55:00,53.1,39.2,29.84,SE,134,4.0,4.0,59,0.00,,,0.00,VWS V14.01,2013-03-16 03:55:00,
2013-03-15 23:56:00,53.8,39.8,29.81,South,186,2.0,3.0,59,0.00,,,0.00,VWS V14.01,2013-03-16 03:56:00,